Regional Weather Roundup
Issued by NWS

Home | Current Version | Previous Version | Graphics & Text | Print | Product List | Glossary On
Versions: 1 2 3 4 5 6 7 8 9 10 11 12 13 14 15 16 17 18 19 20 21 22 23 24 25 26 27 28 29 30 31 32 33 34 35 36 37 38 39 40 41 42 43 44 45 46 47 48 49 50
000
ASUS43 KMPX 120601
RWRMN
WEATHER ROUNDUP FOR MINNESOTA
NATIONAL WEATHER SERVICE TWIN CITIES/CHANHASSEN MN
1200 AM CST FRI FEB 12 2016


NOTE: "FAIR" INDICATES FEW OR NO CLOUDS BELOW 12,000 FEET WITH NO
SIGNIFICANT WEATHER AND/OR OBSTRUCTIONS TO VISIBILITY. N/A MEANS
CURRENT SKY AND/OR WEATHER CONDITIONS ARE NOT AVAILABLE.

MNZ060>063-068>070-120700-
   Twin Cities Metro

CITY           SKY/WX    TMP DP  RH WIND       PRES   REMARKS
TWIN CITIES    CLOUDY    14   8  77 W7        30.22F WCI   4
6HR MIN TEMP:  14; 6HR MAX TEMP:  16; 6HR PCP:  0.01;

ST PAUL        CLOUDY    15   8  73 W8        30.24F WCI   4
CRYSTAL        CLOUDY    15   9  76 W6        30.21F WCI   6
BLAINE         CLOUDY    16  10  79 W7        30.21S WCI   6
LAKEVILLE      FLURRIES  12   9  85 W8        30.21S WCI   1
EDEN PRAIRIE   CLOUDY    16   8  71 W6        30.21F WCI   7
6HR MIN TEMP:  14; 6HR MAX TEMP:  17; 6HR PCP: TRACE;

SOUTH ST PAUL  CLOUDY    15   9  78 W5        30.22F WCI   7
LAKE ELMO      CLOUDY    16  10  79 W6        30.22S WCI   7
$$
MNZ001>005-007-008-013>017-022>024-027-028-120700-
   Northwest Minnesota

CITY           SKY/WX    TMP DP  RH WIND       PRES   REMARKS
BEMIDJI        CLOUDY     6   1  80 NW15      30.19S WCI -12
HALLOCK        CLEAR      3  -6  66 N16       30.31S WCI -16
ROSEAU         CLEAR     -2  -8  78 W8        30.25R WCI -17
WARROAD        CLEAR      0  -6  78 NW9       30.23R WCI -16
THIEF RVR FALL PTCLDY     3   0  85 NW10      30.27S WCI -12
CROOKSTON      FLURRIES   3   1  92 N13       30.31S WCI -14
FOSSTON        MOCLDY     3   0  85 NW9       30.25R WCI -11
DETROIT LAKES  FLURRIES  10   9  92 NW13G18   30.24S WCI  -5
MOORHEAD       CLOUDY    10   7  85 N13       30.30S WCI  -5
PARK RAPIDS    CLOUDY     7   2  80 NW9       30.19S WCI  -7
MAHNOMEN       CLOUDY     7   3  82 N9        30.24S WCI  -6
$$
MNZ006-009>011-018-025>026-120700-
   North Central Minnesota

CITY           SKY/WX    TMP DP  RH WIND       PRES   REMARKS
BAUDETTE       CLEAR      0  -5  79 W10       30.19R WCI -16
FLAG ISLAND    PTCLDY    -2  -8  78 NW18      30.21R WCI -24
INTL FALLS     CLEAR      1  -7  68 NW10      30.14S WCI -15
6HR MIN TEMP:   1; 6HR MAX TEMP:  10;

WASKISH        CLEAR      1  -2  85 W7        30.20R WCI -11
LONGVILLE      FLURRIES   9   3  78 NW7       30.18S WCI  -3
GRAND RAPIDS   MOCLDY     7   1  78 NW12      30.14S WCI  -9
ORR            CLEAR      1  -8  66 NW10G16   30.09R WCI -14
COOK           CLEAR      3  -2  78 W9        30.11R WCI -11
WALKER         FLURRIES   7   2  80 W7        30.19R WCI  -4
$$
MNZ012-019>021-037-120700-
   Northeast Minnesota

CITY           SKY/WX    TMP DP  RH WIND       PRES   REMARKS
DULUTH         CLOUDY     9  -1  64 NW17G24   30.09S WCI  -9
6HR MIN TEMP:   9; 6HR MAX TEMP:  11;

ELY            MOCLDY     7   0  72 NW10G18   30.05F WCI  -8
HIBBING        MIX PCPN   5   0  79 NW20G28   30.11S WCI -15
EVELETH        CLEAR      9   1  72 NW17G25   30.10S WCI -10
DULUTH HARBOR  MOCLDY    14   1  57 W16G24    30.17S WCI  -2
TWO HARBORS    MOCLDY    12   1  62 W5        30.08S WCI   4
SILVER BAY     CLEAR     10   0  61 NW10G16   30.05S WCI  -3
GRAND MARAIS     N/A      9  -1  64 VRB6      30.07F WCI  -1
G MARAIS ARPRT PTCLDY     1  -8  66 W9G22     29.94F WCI -14
$$
MNZ029>031-032-039>041-046>048-054>057-064-120700-
   West Central Minnesota

CITY           SKY/WX    TMP DP  RH WIND       PRES   REMARKS
FERGUS FALLS   CLOUDY     9   3  78 NW7       30.30R WCI  -3
WHEATON        CLOUDY    12   9  85 NW9       30.30S WCI   0
MORRIS         CLOUDY    10   9  92 NW13      30.24F WCI  -5
ALEXANDRIA     CLOUDY    11   6  81 N7        30.21S WCI   0
ELBOW LAKE     FAIR       8   5  87 W9        30.25S FOG     WCI  -6
WADENA         FLURRIES   7   1  78 NW6       30.20F WCI  -3
GLENWOOD       CLOUDY    12   9  85 W9        30.21F WCI   0
APPLETON       CLOUDY    14  10  85 NW12      30.27R WCI   0
BENSON         FLURRIES  12   9  85 N9        30.25R WCI   0
ORTONVILLE     MOCLDY    10   7  85 NW9       30.27R WCI  -2
MADISON        FLURRIES  16  10  79 NW12      30.27R WCI   3
WILLMAR        CLOUDY    16  10  79 NW13      30.24R WCI   2
$$
MNZ033>034-036-042>043-049>051-058-059-120700-
   Central Minnesota

CITY           SKY/WX    TMP DP  RH WIND       PRES   REMARKS
ST CLOUD       CLOUDY    13   8  81 W7        30.20F WCI   3
6HR MIN TEMP:  12; 6HR MAX TEMP:  13; 6HR PCP:  0.02;

SAUK CENTRE    CLOUDY    12   8  85 NW7       30.21S WCI   1
PAYNESVILLE    CLOUDY    14  10  86 NW7       30.22S WCI   4
AITKIN         CLOUDY    12   1  62 W5        30.16S WCI   4
PINE RIVER     CLOUDY     9   3  78 NW7       30.22S WCI  -3
BRAINERD       CLOUDY    11   2  67 NW10      30.19S WCI  -3
STAPLES        CLOUDY     9   1  72 NW7       30.20F WCI  -3
LONG PRAIRIE   CLOUDY    12   9  85 W8        30.20F WCI   1
LITTLE FALLS   CLOUDY    14   5  67 NW9G16    30.21S WCI   2
LITCHFIELD     CLOUDY    16  12  86 NW7       30.21F WCI   6
BUFFALO        CLOUDY    13  10  84 W3        30.22F
MAPLE LAKE     FLURRIES  15  11  85 W6        30.22S WCI   6
$$
MNZ037-044-045-052-053-120700-
   East Central Minnesota

CITY           SKY/WX    TMP DP  RH WIND       PRES   REMARKS
PRINCETON      CLOUDY    16  10  79 W7        30.19F WCI   6
MORA           CLOUDY    14  10  85 W5        30.20S WCI   6
CAMBRIDGE      FLURRIES  16   9  73 CALM      30.18F
RUSH CITY      CLOUDY    14  10  85 W7        30.19F WCI   4
MOOSE LAKE     CLOUDY    14   1  57 NW10      30.15R WCI   1
HINCKLEY       CLOUDY    16  10  79 W7        30.17F WCI   6
CLOQUET        CLOUDY    10   0  61 W12       30.12S WCI  -4
MCGREGOR       CLOUDY    12   3  67 NW12      30.17R WCI  -2
$$
MNZ071>073-080-081-089-090-097-098-120700-
   Southwest Minnesota

CITY           SKY/WX    TMP DP  RH WIND       PRES   REMARKS
MONTEVIDEO     FLURRIES  16  10  79 N9        30.27R WCI   4
GRANITE FALLS  FLURRIES  17  14  88 NW12      30.26R WCI   4
CANBY          CLOUDY    19  16  88 W10       30.27R WCI   7
MARSHALL       FLURRIES  16  13  88 NW14      30.24R WCI   2
REDWOOD FALLS  CLOUDY    17  13  84 NW8       30.23S WCI   7
OLIVIA         FLURRIES  18  14  86 NW9       30.22R WCI   6
PIPESTONE      CLOUDY    18  10  73 NW3       30.20S
WINDOM         FLURRIES  10   9  92 W7        30.20S WCI   0
WORTHINGTON    CLOUDY    14   9  79 W9        30.22R WCI   2
JACKSON        CLOUDY    10   7  85 W8        30.21R WCI  -1
TRACY          CLOUDY    19  15  87 NW13      30.23R WCI   5
SLAYTON        FLURRIES  16  15  94 NW9       30.21F WCI   5
$$
MNZ065>067-074>077-082>085-091>093-120700-
   South Central Minnesota

CITY           SKY/WX    TMP DP  RH WIND       PRES   REMARKS
MANKATO        CLOUDY    14   9  79 W7        30.21S WCI   4
NEW ULM        FLURRIES  16  10  79 W7        30.22S WCI   6
ST JAMES       CLOUDY    16  12  86 W10       30.23S WCI   3
FAIRMONT       CLOUDY    14   9  79 W8        30.21S WCI   3
GLENCOE        FLURRIES  17  14  90 NW3       30.22S
FARIBAULT      FLURRIES  14   9  79 W6        30.21F WCI   5
OWATONNA       FLURRIES  12   9  85 W8        30.20F WCI   1
WASECA         FLURRIES  14  10  85 W8        30.22F WCI   3
ALBERT LEA     CLOUDY    12   9  85 W5        30.19F WCI   4
$$
MNZ078>079-086>088-094>096-120700-
   Southeast Minnesota

CITY           SKY/WX    TMP DP  RH WIND       PRES   REMARKS
ROCHESTER      CLOUDY    12   6  77 W10       30.18F WCI  -1
6HR MIN TEMP:  11; 6HR MAX TEMP:  12; 6HR PCP: TRACE;

RED WING       CLOUDY    14   9  79 NW3       30.22S
STANTON        FLURRIES  16   9  73 W3        30.20F
DODGE CENTER   FLURRIES  12   7  79 W9        30.18S WCI   0
WINONA         CLOUDY    16   9  73 W5        30.23F WCI   9
AUSTIN         CLOUDY    12   7  79 W5        30.19F WCI   4
PRESTON        FLURRIES  11   5  76 W6        30.19S WCI   1
$$
ABBREVIATIONS USED IN REMARKS
   TC - TEMPERATURES IN CELSIUS
  WCI - WIND CHILL INDEX
   HX - HEAT INDEX
  VSB - VISIBILITY
$$



USA.gov is the U.S. government's official web portal to all federal, state and local government web resources and services.